Back to catalog

GLOBALSTAR M050

AliveCommunicationsLEO
NORAD 25908·PAYLOAD·🇺🇸 United States

Launched Sep 22, 1999 from Baikonur Cosmodrome

Loading…

Next Passes (next 24 hours)

TLE

FreshSource: Space-Track

Epoch: Sep 14, 2026, 14:52 UTC

1 25908U 99049B   26257.62009216 -.00000137  00000-0 -54856-3 0  9997
2 25908  52.0001 309.4261 0008994 215.4423 311.4083 12.07466367203085

Track GLOBALSTAR M050 in real time with AllMySat

Download on the App Store